User: anonymous   Login
Location: Newark
(49.8969°N, 3.3422°E)
Time: 12:28:01
(UTC+00:00)
Language:

Tiros 1 - Orbit

View from above orbital plane
View from above orbital plane
View from above satellite
View from above satellite

Ground track
Ground track

The orbit data is extracted from the following two-line orbital elements,

1    29U 60002B   21138.11485992 -.00000124  00000-0  12432-4 0  9997
2    29  48.3782 169.1689 0024538 225.4628 134.4280 14.74428165268040
Epoch (UTC): 18 May 2021 02:45:23
Eccentricity: 0.0024538
inclination: 48.3782°
perigee height: 630 km
apogee height: 664 km
right ascension of ascending node: 169.1689°
argument of perigee: 225.4628°
revolutions per day: 14.74428165
mean anomaly at epoch: 134.4280°
orbit number at epoch: 26804

The dashed part of the orbit path shows where the satellite is in the earth's shadow,  

DLR